Location: Cz?stochówka
(50.8142°N, 19.0915°E)
Time: 19:51:08
(UTC+00:00)

Cosmos 1666 Rocket - Pass Details

Date: 13 January 2026
Orbit: 598 x 625 km, 82.5° (Epoch: 13 February)

Event Time Altitude Azimuth Distance (km) Brightness Sun altitude
Rises 05:19:57 0° 182° (S) 2,850 7.2 -12.3°
Reaches altitude 10° 05:22:09 10° 180° (S) 1,955 6.4 -12.0°
Maximum altitude 05:26:27 71° 98° (E) 652 3.9 -11.3°
Drops below altitude 10° 05:30:50 10° 14° (NNE) 1,989 6.1 -10.7°
Sets 05:33:05 0° 13° (NNE) 2,904 6.9 -10.3°
